SL-19 DEB, 23486

Orbit data source: Space-Track

SL-19 DEB, 23486 is space debris in LEO originally from a launch on Mon, 26 Dec 1994 UTC launched from the Tyuratam Missile And Space Complex (TTMTR). Debris objects in space refer to the collection of defunct objects orbiting the Earth. Examples of debris include non-operational satellites, rocket bodies, and fragments generated from explosions, collisions, or faulty payload assembly.

Loading next visibility...
Identifier
23486, 1994-085J
Orbit
LEO
Country
Flag of CISCIS
Related business
Manufacturer
Unknown
Mission
Spacecraft
Bus & Motor
Unknown
Mass
Unknown
Launch date (UTC)
1994-12-26 (31 years ago)
Launch vehicle
Unknown
Launch site
Tyuratam Missile And Space Complex (TTMTR)
Object type
Payload
Rocket body
Debris
Shape & HBR
Unknown shape, 0.1 m
Radar Cross Section
Small (<0.1 m²)

Expand to show TLE details & history
Last TLE update: 7 hours ago

TLE from 7 hours ago
0 SL-19 DEB
1 23486U 94085J   25310.26030812  .00000171  00000-0  61444-2 0  9992
2 23486  64.9159 121.4245 0176587 280.7532 254.3940 11.25688262578041
Epoch: 2025-11-06T06:14Z
TLE epoch observation values (Epoch: 2025-11-06T06:14:50.621Z)
Latitude
6.09494°
Longitude
159.14053°
Altitude
2,075.206 km
Speed
6.851 km/s
True Right ascension
19h 54m 17s
True Declination
6° 03' 52"
Sunlit
Object was in daylight at epoch
Visualization orbit readout
Latitude
Unknown
Longitude
Unknown
Altitude
Unknown
Speed
Unknown
Apparent Right ascension
Unknown
Apparent Declination
Unknown
Sunlit
N/A
Visualization observer readout
Local Sidereal Time
08:59:33
Azimuth
Unknown
Elevation
Unknown
Doppler factor
Unknown
Orbital elements
Apogee altitude
2,179.026 km
Perigee altitude
1,882.054 km
Semi-major axis
8,408.677 km
Eccentricity
0.01766
Inclination
64.9159°
RAAN
121.4245°
Arg. of periapsis
280.7532°
True anomaly
252.45694°
Mean anomaly
254.394°
Eccentric anomaly
253.42428°
Mean motion
2.81483 °/min
Orbital period
127.89 mins
BSTAR
0.0061444
Loading maneuver chart data...
Computing Atmospheric mass density...
Loading historical data...
Loading historical data...
Loading historical data...
Loading historical data...
Loading historical data...
Loading historical data...
Loading historical data...

Documentation

Showing up to 5 results
|